Home   Weather   Istres   Past weeks

Flag for France Past Weather in Istres, Provence-Alpes-Côte d'Azur, France — Yesterday and Last 2 Weeks

Now
48 °F

Passing clouds.


Feels Like: 46 °F
Forecast: 33 / 52 °F
Wind: 6 mph from Northeast

Location: Istres Airport

Current Time: Jan 20, 2017 at 7:19:04 pm

Latest Report: Jan 20, 2017 at 6:30 pm


Visibility: N/A

Pressure: 30.27 "Hg

Humidity: 54%

Dew Point: 32 °F

Location of IstresLocation

Past Weather in Istres — Graph

°F

Istres Temperature Yesterday

Maximum temperature yesterday: 48 °F (at 2:00 pm)
Minimum temperature yesterday: 27 °F (at 1:30 am)
Average temperature yesterday: 35 °F

High & Low Weather Summary for the Past Weeks

 TemperatureHumidityPressure
High59 °F (Jan 12, 2:30 pm)94% (Jan 12, 9:00 pm)30.42 "Hg (Jan 12, 9:00 pm)
Low27 °F (Jan 19, 1:30 am)20% (Jan 7, 8:30 pm)29.77 "Hg (Jan 10, 1:30 pm)
Average39 °F60%30.11 "Hg
* Reported Jan 5 6:00 pm — Jan 20 6:00 pm, Istres, Weather by CustomWeather, © 2017

Note: Actual official high and low records may vary slightly from our data, if they occured in-between our weather recording intervals... More about our weather records

Advertising

Istres Weather History for the Previous 24 Hours

Scroll right to see more
 ConditionsComfort  
Time TempWeatherWind HumidityBarometerVisibility
6:00 pm
Fri, Jan 20
46 °FClear.9 mph50%30.27 "Hg10 mi
5:30 pm48 °FSunny.9 mph46%30.27 "Hg10 mi
5:00 pm50 °FSunny.10 mph43%30.27 "Hg10 mi
4:30 pm52 °FSunny.9 mph41%30.27 "Hg10 mi
4:00 pm54 °FSunny.10 mph41%30.27 "Hg10 mi
3:30 pm54 °FSunny.12 mph38%30.27 "Hg10 mi
3:00 pm55 °FPassing clouds.10 mph36%30.27 "HgN/A
2:30 pm54 °FPassing clouds.7 mph38%30.27 "HgN/A
2:00 pm54 °FPassing clouds.8 mph38%30.27 "HgN/A
1:30 pm52 °FPassing clouds.10 mph41%30.30 "HgN/A
1:00 pm52 °FSunny.9 mph41%30.30 "Hg10 mi
12:30 pm52 °FSunny.10 mph41%30.30 "Hg10 mi
12:00 pm50 °FPassing clouds.9 mph43%30.33 "HgN/A
11:30 am50 °FPassing clouds.9 mph43%30.33 "HgN/A
11:00 am46 °FSunny.7 mph50%30.33 "Hg10 mi
10:30 am41 °FSunny.9 mph57%30.33 "Hg10 mi
10:00 am37 °FSunny.12 mph60%30.33 "Hg10 mi
9:30 am34 °FSunny.12 mph70%30.33 "Hg10 mi
9:00 am32 °FSunny.9 mph75%30.33 "Hg10 mi
8:30 am30 °FClear.9 mph75%30.33 "Hg6 mi
8:00 am30 °FClear.9 mph75%30.33 "Hg6 mi
7:30 am30 °FClear.7 mph75%30.33 "Hg6 mi
7:00 am30 °FClear.8 mph75%30.30 "Hg6 mi
6:30 am30 °FClear.8 mph75%30.30 "Hg6 mi
6:00 am30 °FClear.7 mph75%30.30 "Hg6 mi
5:30 am30 °FClear.7 mph75%30.30 "Hg6 mi
5:00 am32 °FClear.8 mph69%30.30 "Hg6 mi
4:30 am32 °FClear.8 mph69%30.30 "Hg6 mi
4:00 am32 °FClear.7 mph69%30.33 "Hg10 mi
3:30 am32 °FPassing clouds.6 mph69%30.33 "HgN/A
3:00 am32 °FClear.8 mph69%30.33 "Hg10 mi
2:30 am32 °FClear.12 mph69%30.33 "Hg10 mi
2:00 am32 °FClear.13 mph69%30.30 "Hg6 mi
1:30 am32 °FClear.13 mph69%30.33 "Hg10 mi
1:00 am32 °FClear.9 mph69%30.33 "Hg6 mi
12:30 am32 °FClear.9 mph69%30.33 "Hg10 mi
12:00 am32 °FClear.7 mph69%30.33 "Hg10 mi
11:30 pm
Thu, Jan 19
34 °FClear.8 mph65%30.33 "Hg10 mi
11:00 pm34 °FClear.5 mph65%30.33 "Hg10 mi
10:30 pm34 °FClear.7 mph65%30.33 "Hg10 mi
10:00 pm34 °FClear.8 mph65%30.33 "Hg10 mi
9:30 pm36 °FClear.7 mph56%30.33 "Hg10 mi
9:00 pm37 °FClear.7 mph56%30.30 "Hg10 mi
8:30 pm36 °FClear.5 mph60%30.30 "Hg10 mi
8:00 pm34 °FPassing clouds.5 mph65%30.30 "HgN/A
7:30 pm36 °FClear.6 mph60%30.30 "Hg10 mi
7:00 pm36 °FClear.5 mph60%30.27 "Hg10 mi
Weather by CustomWeather, © 2017

See weather overviewHow to use our weather pages